Content
SEND FEEDBACK

Daily
Averages
Monthly
Summary
United States of America

ENTERPRISE, ALABAMA


Home > North America > United States > Alabama
Elevation: 298 feet     Latitude: 31 17N     Longitude: 085 43W

WEATHER
 
SELECT A DAY
Number of Records: 67,856;   Date Range: 2/10/98 - 12/17/14
 
SHARE

PRINT THIS DATA

[ ← Previous Day ]
WEATHER ALMANAC - MARCH 15, 2014
[ Next Day → ]
[ °C ]   °F
Weather ElementAverageHighLow
Temperature58.4 °F66.9 °F (11:02 am)42.1 °F (2:53 am)
Dewpoint50.8 °F55.9 °F (4:53 pm)39.9 °F (1:53 am)
Humidity76.6 %93 % (3:53 am)61 % (11:38 am)
Barometer30.08 in30.15 in (8:36 am)29.96 in (11:53 pm)
Wind Speed1.5 mph8.1 mph (1:53 pm)
Weather ElementAverage
Visibility9.6 mi
Wind DirectionNNE (28 °)

Weather ElementTotal
Precipitation---
Heating Degree Days10.5 (Base 65)
Growing Degree Days4.5 (Base 50)
Averaged from 30 records on March 15, 2014
WEATHER CONDITIONS BREAKOUT
WIND DIRECTION BREAKOUT
WEATHER BY HOUR - MARCH 15, 2014
[ °C ]   °F
Local TimeTemperatureDewpointHumidityBarometerVisibilityWind DirectionWind SpeedGust SpeedPrecipitationEventsConditions
1:53 AM44.1 °F39.9 °F85 %30.14 in10.0 miCalmClear
2:53 AM42.1 °F39.9 °F92 %30.13 in10.0 miCalmClear
3:53 AM43.0 °F41.0 °F93 %30.12 in10.0 miCalmMostly Cloudy
4:53 AM43.0 °F41.0 °F93 %30.11 in10.0 miCalmMostly Cloudy
5:53 AM46.0 °F43.0 °F89 %30.11 in10.0 miCalmOvercast
6:53 AM45.0 °F42.1 °F90 %30.13 in10.0 miCalmPartly Cloudy
7:53 AM46.9 °F44.1 °F90 %30.14 in9.0 miCalmClear
8:36 AM51.1 °F46.9 °F86 %30.15 in3.0 miCalmMostly Cloudy
8:53 AM54.0 °F48.0 °F80 %30.14 in7.0 miCalmScattered Clouds
9:53 AM63.0 °F51.1 °F65 %30.14 in10.0 miCalmClear
10:18 AM64.9 °F53.1 °F65 %30.14 in10.0 miSSW (200°)6.9 mphMostly Cloudy
10:53 AM66.0 °F53.1 °F63 %30.13 in10.0 miCalmMostly Cloudy
11:02 AM66.9 °F54.0 °F63 %30.13 in10.0 miCalmOvercast
11:38 AM66.9 °F53.1 °F61 %30.12 in10.0 miVariable3.5 mphOvercast
11:53 AM66.0 °F53.1 °F63 %30.12 in10.0 miSW (220°)4.6 mphOvercast
12:08 PM66.9 °F53.1 °F61 %30.12 in10.0 miCalmOvercast
12:53 PM64.0 °F54.0 °F70 %30.11 in10.0 miNorth (10°)6.9 mphOvercast
1:53 PM64.9 °F54.0 °F68 %30.08 in10.0 miNNE (20°)8.1 mph0.00 inOvercast
2:53 PM64.0 °F55.0 °F73 %30.06 in10.0 miNorth (350°)3.5 mphOvercast
3:16 PM64.9 °F55.0 °F70 %30.05 in10.0 miCalmOvercast
3:27 PM64.9 °F54.0 °F68 %30.05 in10.0 miCalmOvercast
3:53 PM64.9 °F55.0 °F70 %30.04 in10.0 miVariable3.5 mphOvercast
4:53 PM63.0 °F55.9 °F78 %30.02 in10.0 miNorth (10°)4.6 mphOvercast
5:53 PM63.0 °F55.0 °F75 %30.02 in10.0 miNNE (30°)4.6 mphOvercast
6:53 PM62.1 °F55.0 °F78 %30.01 in10.0 miCalmOvercast
7:53 PM61.0 °F55.0 °F81 %30.00 in10.0 miCalmOvercast
8:53 PM60.1 °F55.0 °F83 %30.01 in10.0 miCalmOvercast
9:53 PM60.1 °F55.0 °F83 %29.99 in10.0 miCalmOvercast
10:53 PM60.1 °F55.0 °F83 %29.99 in10.0 miCalmOvercast
11:53 PM60.1 °F54.0 °F80 %29.96 in10.0 miCalmOvercast
Hourly data recorded from KLOR, located miles away from Enterprise, Alabama







STORIES FROM OUR PARTNERS